Weather History for Frankfort, KY

Change the Weather History Date:

Thursday, July 18, 2013

  Actual Average Record
Temperature  
Mean Temperature 82 °F 76 °F  
Max Temperature 92 °F 87 °F 102 °F (1913)
Min Temperature 72 °F 66 °F 54 °F (1985)
Degree Days  
Heating Degree Days 0 0  
Month to date heating degree days 0 0  
Since 1 June heating degree days 2 10  
Since 1 July heating degree days 0 0  
Cooling Degree Days 17 11  
Month to date cooling degree days 189 198  
Year to date cooling degree days 549 533  
Since 1 June cooling degree days 430 434  
Growing Degree Days 32 (Base 50)    
Moisture  
Dew Point 74 °F    
Average Humidity 75    
Maximum Humidity 94    
Minimum Humidity 56    
Precipitation  
Precipitation 0.79 in 0.16 in 1.63 in (2001)
Month to date precipitation 6.42 2.50  
Year to date precipitation 31.60 26.06  
Sea Level Pressure  
Sea Level Pressure 30.13 in    
Wind  
Wind Speed 1 mph (NNW)    
Max Wind Speed 18 mph    
Max Gust Speed 25 mph    
Visibility 6 miles    
Events Rain , Thunderstorm    
T = Trace of Precipitation, MM = Missing Value Source: NWS Daily Summary

Daily Weather History Graph

Daily Weather History Graph

Search for Another Location

Airport:

Trip Planner

Search our weather history database for the weather conditions in past years. The results will help you decide how hot, cold, wet, or windy it might be!

Date:

Astronomy

Jul. 18, 2013 Rise Set
Actual Time 6:30 AM EDT 9:00 PM EDT
Civil Twilight 6:00 AM EDT 9:30 PM EDT
Nautical Twilight 5:22 AM EDT 10:08 PM EDT
Astronomical Twilight 4:40 AM EDT 10:50 PM EDT
Moon 4:56 PM EDT (7/18) 2:19 AM EDT (7/18)
Length of Visible Light 15h 30m
Length of Day
14h 29m
Waxing Gibbous, 77% of the Moon is Illuminated
Jul 18
Waxing Gibbous
Jul 22
Full
Jul 29
Last Quarter
Aug 6
New
Aug 14
First Quarter

Hourly Weather History & Observations

Time (EDT) Temp. Heat Index Dew Point Humidity Pressure Visibility Wind Dir Wind Speed Gust Speed Precip Events Conditions
12:53 AM 75.0 °F - 72.0 °F 90% 30.20 in 7.0 mi Calm Calm - N/A   Clear
1:53 AM 73.9 °F - 71.1 °F 91% 30.19 in 6.0 mi Calm Calm - N/A   Clear
2:53 AM 73.0 °F - 72.0 °F 96% 30.17 in 5.0 mi Calm Calm - N/A   Clear
3:53 AM 73.0 °F - 71.1 °F 93% 30.16 in 4.0 mi Calm Calm - N/A   Clear
4:53 AM 73.0 °F - 71.1 °F 93% 30.15 in 5.0 mi Calm Calm - N/A   Clear
5:53 AM 73.0 °F - 72.0 °F 96% 30.17 in 5.0 mi Calm Calm - N/A   Clear
6:53 AM 73.9 °F - 72.0 °F 93% 30.18 in 4.0 mi Calm Calm - N/A   Mostly Cloudy
7:53 AM 75.9 °F - 73.0 °F 91% 30.18 in 5.0 mi Calm Calm - N/A   Mostly Cloudy
8:53 AM 75.9 °F - 73.0 °F 91% 30.19 in 5.0 mi NNW 3.5 mph - N/A   Clear
9:53 AM 81.0 °F 86.7 °F 75.0 °F 82% 30.19 in 7.0 mi Calm Calm - N/A   Partly Cloudy
10:53 AM 84.9 °F 92.1 °F 73.9 °F 69% 30.18 in 10.0 mi NNW 4.6 mph - N/A   Partly Cloudy
11:53 AM 86.0 °F 93.0 °F 73.0 °F 65% 30.17 in 10.0 mi SSE 3.5 mph - N/A   Clear
12:53 PM 87.1 °F 95.4 °F 73.9 °F 65% 30.15 in 9.0 mi Calm Calm - N/A   Partly Cloudy
1:53 PM 87.1 °F 94.5 °F 73.0 °F 63% 30.14 in 9.0 mi Calm Calm - N/A   Mostly Cloudy
2:53 PM 91.0 °F 99.3 °F 73.0 °F 55% 30.11 in 8.0 mi NW 3.5 mph - N/A   Clear
3:03 PM 89.6 °F 98.2 °F 73.4 °F 59% 30.13 in 8.0 mi Variable 3.5 mph - N/A Thunderstorm Partly Cloudy
3:32 PM 80.6 °F 86.2 °F 75.2 °F 84% 30.13 in 1.5 mi NE 15.0 mph 25.3 mph 0.16 in Rain , Thunderstorm Thunderstorms and Rain
3:34 PM 78.8 °F - 75.2 °F 89% 30.13 in 0.8 mi ENE 11.5 mph 25.3 mph 0.25 in Rain , Thunderstorm Heavy Thunderstorms and Rain
3:53 PM 79.0 °F - 69.1 °F 72% 30.10 in 0.5 mi Variable 4.6 mph - 0.75 in Rain , Thunderstorm Heavy Thunderstorms and Rain
4:00 PM 78.8 °F - 68.0 °F 69% 30.12 in 1.0 mi WNW 4.6 mph - 0.03 in Rain , Thunderstorm Rain
4:03 PM 78.8 °F - 69.8 °F 74% 30.12 in 2.0 mi WNW 3.5 mph - 0.03 in Rain , Thunderstorm Rain
4:11 PM 80.6 °F 86.2 °F 75.2 °F 84% 30.12 in 5.0 mi Calm Calm - 0.04 in Rain Light Rain
4:49 PM 86.0 °F 93.4 °F 73.4 °F 66% 30.11 in 9.0 mi SE 3.5 mph - 0.04 in Thunderstorm Scattered Clouds
4:53 PM 87.1 °F 96.3 °F 75.0 °F 67% 30.08 in 9.0 mi Calm Calm - 0.04 in Thunderstorm Scattered Clouds
5:19 PM 84.2 °F 92.3 °F 75.2 °F 74% 30.09 in 8.0 mi ESE 3.5 mph - N/A   Clear
5:53 PM 82.9 °F 92.8 °F 78.1 °F 85% 30.06 in 5.0 mi Calm Calm - N/A   Haze
6:53 PM 82.9 °F 92.8 °F 78.1 °F 85% 30.05 in 5.0 mi Calm Calm - N/A   Haze
7:53 PM 82.0 °F 91.0 °F 78.1 °F 88% 30.04 in 4.0 mi Calm Calm - N/A   Clear
8:53 PM 80.1 °F 86.4 °F 78.1 °F 94% 30.06 in 4.0 mi WSW 3.5 mph - N/A   Clear
9:53 PM 78.1 °F - 75.9 °F 93% 30.07 in 5.0 mi Calm Calm - N/A   Clear
10:53 PM 78.1 °F - 73.9 °F 87% 30.07 in 6.0 mi Calm Calm - N/A   Clear
11:53 PM 77.0 °F - 73.0 °F 88% 30.06 in 6.0 mi South 3.5 mph - N/A   Clear